Wind_Speed
76 81 86 86 86 87 91 88 87 87 83 84 79 85 86 82 82 79 74 74 74 73 73 71 71 71 69 70 71 71 65 66 67 67 64 58 54 53 60 54 48 51 44 46 44
84 89 91 91 92 95 96 95 97 94 91 84 85 85 82 82 85 85 81 74 78 77 76 76 74 72 73 73 72 72 70 70 74 69 67 67 64 63 63 59 56 54 51 51 51
91 91 94 95 96 96 96 96 98 99 98 97 94 85 83 79 81 85 83 80 79 81 82 80 78 77 78 77 78 74 70 77 75 74 74 71 70 67 67 66 62 59 59 57 57
93 98 97 96 98 99 97 96 97 100 101 98 94 100 91 89 82 87 86 89 84 85 84 87 84 81 79 78 81 79 78 79 80 75 77 76 75 73 71 73 68 61 62 62 65
100 104 97 96 96 97 100 100 99 94 92 93 95 90 94 84 94 85 91 90 89 87 88 87 89 87 87 82 82 80 85 83 77 77 82 81 77 76 73 78 74 67 60 64 67
106 105 101 99 102 105 107 105 100 103 104 100 98 85 80 78 90 86 88 90 89 90 85 84 89 91 93 93 90 85 86 89 89 84 83 84 81 76 83 82 77 72 70 68 66
111 112 107 109 110 110 105 105 106 94 89 83 90 80 72 80 75 81 84 83 82 88 85 84 86 93 94 94 93 92 88 91 90 92 87 84 84 81 84 82 83 79 76 74 74
115 113 108 105 103 97 86 84 87 86 84 84 81 75 68 78 77 76 84 82 80 82 87 87 88 90 97 97 97 101 98 96 99 95 90 89 87 86 86 87 84 82 80 81 81
117 115 99 101 91 86 86 85 86 86 84 81 79 75 70 76 76 73 75 80 81 81 82 84 85 87 93 96 100 101 102 104 103 100 94 90 90 90 92 90 89 86 82 79 80
112 102 93 89 83 83 83 83 81 79 76 78 73 69 71 73 74 74 73 70 77 79 82 85 88 87 86 87 95 104 104 101 106 102 98 94 93 95 94 93 91 91 88 87 84
98 87 83 81 80 81 78 72 73 68 65 69 66 63 61 69 71 70 72 72 72 73 77 81 85 81 89 91 94 98 99 104 105 102 102 102 97 96 97 94 93 92 95 95 90
88 84 80 79 78 78 72 67 62 56 54 60 60 60 59 62 60 67 71 70 70 71 69 67 71 85 85 90 89 96 99 104 108 105 100 98 97 98 96 95 96 95 95 93 94
83 81 78 76 76 73 66 61 55 47 41 58 47 50 57 54 60 64 64 67 68 69 70 66 72 71 72 74 79 86 92 99 104 102 103 99 95 102 101 100 98 97 98 97 96
83 81 78 71 75 71 67 55 50 41 40 44 48 46 50 51 49 59 63 63 61 65 68 66 69 67 71 71 71 74 77 82 99 99 100 94 94 100 104 105 102 99 99 100 99
85 82 77 74 69 63 60 54 45 40 39 43 46 49 47 47 46 49 54 57 60 63 63 62 65 65 69 69 69 71 72 73 71 79 85 85 94 95 102 103 105 106 103 101 101
85 82 76 75 70 58 53 48 46 41 41 42 44 47 50 46 43 48 46 51 57 57 56 56 60 61 63 66 68 68 70 72 67 66 67 77 81 80 89 94 100 103 103 102 102
88 82 78 70 62 54 52 50 47 45 38 35 37 43 48 47 46 46 45 48 50 49 50 52 55 56 58 60 61 63 66 67 65 65 63 69 70 71 76 83 87 92 95 93 93
90 82 77 66 60 52 50 51 49 42 34 31 29 32 38 44 44 46 45 46 48 48 48 48 48 52 53 56 56 58 59 59 59 61 61 63 67 69 69 72 77 80 81 83 86
88 82 75 64 57 55 53 49 45 37 32 27 25 29 33 36 38 42 47 49 48 45 44 46 46 51 50 51 50 52 54 52 54 56 57 59 61 62 63 67 71 72 72 74 76
85 78 70 62 56 55 50 46 37 34 31 26 25 27 32 34 34 36 43 45 46 46 46 45 45 47 46 45 46 48 48 47 48 50 51 50 49 52 58 61 62 65 68 69 69
84 74 67 60 59 53 48 38 32 32 31 26 24 25 30 31 32 31 31 30 37 41 44 46 45 44 41 41 41 41 40 41 43 46 45 44 45 50 53 55 55 59 63 64 66
83 74 62 61 56 51 44 34 31 29 28 24 20 22 25 24 24 23 27 29 33 36 40 45 46 44 41 37 36 37 37 38 38 39 37 37 45 48 51 54 55 56 59 60 60
80 76 61 59 56 48 40 33 31 26 25 20 18 21 19 18 19 21 25 31 32 34 36 39 43 43 41 36 36 36 35 32 27 26 32 37 47 46 48 51 50 50 50 51 50
75 70 64 58 53 44 35 34 28 24 24 19 16 19 17 16 20 23 26 30 31 33 33 34 37 40 38 37 35 34 30 25 25 29 33 40 39 39 41 41 42 40 38 36 34
74 67 62 60 50 40 34 33 26 24 24 19 16 16 18 18 22 22 24 25 27 28 29 30 33 36 37 35 33 29 26 22 22 26 34 29 32 34 33 33 31 30 29 27 26
70 65 62 55 46 36 33 30 25 23 21 18 15 17 18 18 20 20 21 23 24 25 25 26 27 33 35 33 31 29 19 18 21 24 25 28 27 28 27 26 24 23 23 25 23
66 64 59 49 42 34 32 27 25 23 19 16 16 17 18 18 19 18 21 23 22 21 21 24 29 34 34 34 30 21 17 21 23 26 24 24 25 23 23 22 22 23 23 20 18
Wind_Direction
295 296 297 295 293 291 292 292 290 286 282 279 276 272 272 270 271 274 272 259 254 254 254 254 253 253 251 249 245 246 246 247 247 249 251 249 246 243 247 245 244 248 247 249 253
303 302 298 298 295 294 292 292 290 289 286 284 282 279 274 270 266 267 268 263 255 249 249 250 253 251 253 252 249 247 245 244 247 250 250 251 249 247 248 249 248 248 249 250 249
306 304 298 296 295 293 291 288 289 288 286 284 281 278 274 276 280 263 259 259 255 254 250 248 248 250 250 251 252 250 247 246 247 246 247 248 250 250 252 251 250 246 246 248 246
303 302 297 293 291 288 287 287 287 287 285 285 282 281 279 278 276 270 263 255 256 253 253 248 245 245 247 248 249 249 250 249 249 247 247 245 247 248 249 251 248 249 249 248 249
304 303 299 294 292 289 292 291 290 286 281 281 279 277 275 273 272 265 262 258 253 253 253 250 246 245 243 242 244 246 248 249 250 248 246 248 245 247 247 247 246 244 244 247 246
305 304 300 297 299 297 294 294 291 289 287 283 282 282 273 270 264 263 260 259 251 252 252 247 246 247 245 244 243 246 247 247 247 249 249 248 248 248 249 249 249 244 244 243 247
305 304 303 301 299 298 294 292 291 289 283 282 278 278 273 267 261 263 257 254 252 252 253 248 246 244 243 244 244 243 241 246 246 246 246 247 249 246 249 250 250 250 244 245 243
307 308 303 303 298 296 294 290 288 286 283 281 279 277 272 265 262 260 253 249 252 250 252 251 246 245 242 242 245 242 239 244 245 243 244 245 247 248 247 248 250 250 250 247 245
309 308 305 300 297 295 291 288 285 285 283 281 277 274 269 265 260 259 255 254 254 252 246 247 246 242 243 242 243 243 242 242 242 243 240 241 245 246 248 247 249 250 250 250 251
311 305 304 303 300 296 292 290 288 285 284 280 277 273 266 262 262 259 256 254 252 251 249 248 244 244 247 242 241 239 241 242 242 243 242 241 241 244 245 247 248 248 250 250 249
310 310 309 305 301 298 297 294 291 288 283 280 276 270 265 261 257 257 257 254 253 252 250 244 238 244 247 242 240 239 239 239 240 240 243 243 242 242 245 245 247 248 247 249 250
314 314 311 309 305 303 301 297 293 290 286 275 269 270 266 260 258 256 253 253 251 250 249 246 245 245 244 243 243 241 240 239 240 240 241 241 243 245 242 246 246 247 248 247 249
318 317 314 312 308 306 304 300 297 294 279 278 275 266 261 258 254 254 253 251 249 250 249 246 247 244 243 242 244 246 244 242 240 239 237 237 241 243 244 242 246 248 249 249 249
321 319 317 315 312 311 306 303 298 294 285 277 276 266 261 258 254 250 249 249 249 247 246 245 246 246 245 246 246 245 244 244 240 239 238 241 240 243 245 245 245 246 248 250 251
323 322 320 316 313 311 309 307 301 295 286 282 274 271 262 259 254 251 251 249 247 247 246 243 244 244 245 246 247 247 246 248 245 242 240 241 242 244 244 244 246 247 247 249 251
325 324 321 319 316 315 311 308 304 301 292 281 272 268 264 259 252 250 248 247 245 244 244 242 242 242 243 242 243 244 246 248 245 239 238 241 241 242 247 247 247 249 251 252 251
326 324 323 320 317 316 315 312 308 305 296 282 270 264 261 258 254 251 245 242 244 242 241 240 241 241 241 243 242 243 244 246 245 242 237 240 240 238 242 246 248 249 249 250 249
326 325 324 322 319 318 316 310 308 305 296 283 270 262 258 253 248 248 244 241 242 239 238 237 239 240 241 242 241 243 245 245 245 243 240 241 242 238 239 243 247 248 248 249 250
326 326 324 322 322 320 317 310 308 303 295 288 273 260 253 252 246 243 241 240 240 239 238 234 234 237 237 239 241 243 245 244 243 242 240 238 239 241 242 239 242 246 249 250 252
326 327 324 324 323 321 318 314 310 303 298 290 274 261 252 251 247 243 242 240 239 236 233 232 232 236 235 235 239 239 242 242 240 239 240 240 241 242 244 241 239 240 244 246 250
327 327 325 325 325 323 319 315 309 301 295 286 272 259 254 249 251 249 255 239 237 233 231 231 230 233 234 234 236 236 238 239 239 240 241 241 237 240 240 241 240 240 239 242 247
329 327 327 325 325 323 319 316 309 302 291 284 266 258 255 251 245 236 244 234 231 229 227 227 227 229 230 231 233 236 235 237 239 239 240 236 236 232 234 236 236 235 237 241 244
330 326 327 326 326 322 319 316 310 300 288 282 271 263 251 248 244 236 229 234 233 229 227 226 224 223 224 224 228 229 233 237 235 227 228 228 231 227 229 234 237 240 242 245 248
330 326 325 327 326 321 319 313 307 296 288 278 271 266 256 244 240 241 230 229 229 230 230 226 220 217 217 219 223 226 228 223 216 222 223 225 227 230 231 235 239 243 244 247 244
329 326 324 325 324 320 317 311 304 292 285 279 274 255 247 240 242 239 240 236 235 234 230 224 220 212 209 213 218 218 210 219 218 213 221 219 223 227 229 233 236 236 237 233 233
328 325 323 325 322 319 315 308 300 290 283 274 267 254 245 249 242 237 237 233 232 232 232 224 213 205 204 204 206 200 196 208 205 206 211 214 215 222 224 225 224 221 217 217 218
327 324 322 325 319 317 314 306 299 287 279 274 264 250 243 247 243 240 234 233 227 223 218 211 201 198 195 199 202 195 199 200 197 202 207 212 216 216 211 205 199 195 198 197 200
Height
10692 10686 10679 10674 10669 10663 10658 10655 10651 10649 10648 10647 10646 10646 10648 10650 10650 10654 10656 10658 10657 10662 10664 10668 10671 10675 10679 10684 10688 10694 10702 10704 10702 10707 10714 10724 10730 10733 10730 10738 10744 10745 10751 10753 10754
10675 10668 10661 10654 10647 10641 10634 10629 10624 10621 10619 10620 10620 10620 10623 10626 10628 10629 10634 10635 10637 10640 10644 10647 10652 10657 10662 10665 10671 10677 10686 10686 10684 10697 10701 10706 10712 10714 10716 10725 10731 10736 10741 10743 10743
10656 10648 10640 10632 10624 10616 10612 10605 10599 10595 10592 10590 10592 10594 10597 10602 10604 10605 10606 10611 10614 10618 10621 10625 10631 10636 10643 10648 10653 10659 10671 10664 10673 10679 10683 10690 10693 10702 10704 10707 10715 10723 10727 10730 10729
10636 10625 10615 10605 10598 10590 10584 10580 10576 10568 10564 10561 10561 10562 10564 10572 10580 10578 10579 10582 10590 10592 10598 10602 10608 10615 10622 10631 10630 10643 10648 10647 10654 10666 10665 10671 10677 10685 10690 10687 10699 10709 10713 10716 10717
10611 10599 10587 10578 10569 10562 10554 10549 10542 10541 10539 10536 10534 10534 10535 10544 10543 10556 10552 10552 10561 10567 10570 10578 10587 10593 10600 10605 10612 10621 10624 10629 10636 10648 10648 10653 10664 10666 10675 10667 10679 10694 10698 10699 10704
10583 10571 10559 10548 10539 10530 10522 10514 10508 10502 10499 10498 10497 10503 10507 10516 10506 10516 10523 10526 10534 10539 10544 10552 10558 10569 10576 10582 10592 10601 10606 10607 10616 10624 10631 10635 10643 10657 10645 10652 10664 10676 10680 10684 10687
10554 10541 10531 10520 10508 10499 10488 10481 10476 10468 10463 10467 10467 10474 10482 10476 10481 10483 10489 10497 10506 10509 10518 10525 10532 10537 10554 10558 10570 10576 10582 10585 10596 10599 10610 10619 10627 10635 10632 10639 10643 10652 10665 10669 10671
10525 10513 10502 10489 10478 10468 10460 10452 10445 10440 10437 10440 10441 10448 10459 10445 10451 10458 10456 10466 10473 10483 10493 10500 10502 10515 10527 10533 10541 10549 10560 10567 10561 10575 10592 10597 10609 10612 10618 10620 10625 10633 10645 10650 10655
10500 10489 10473 10462 10451 10442 10435 10429 10421 10415 10413 10415 10417 10421 10430 10422 10424 10429 10432 10437 10445 10455 10463 10471 10479 10488 10499 10507 10516 10524 10535 10537 10544 10555 10569 10579 10586 10590 10594 10602 10608 10615 10624 10632 10637
10477 10463 10452 10437 10426 10416 10409 10404 10397 10396 10390 10386 10389 10393 10395 10396 10399 10402 10408 10417 10422 10430 10438 10444 10453 10465 10473 10480 10490 10491 10510 10520 10528 10535 10546 10558 10563 10568 10574 10580 10590 10597 10605 10609 10617
10457 10444 10428 10414 10400 10390 10387 10379 10373 10373 10368 10358 10359 10363 10368 10370 10374 10380 10384 10394 10398 10406 10410 10418 10436 10443 10440 10456 10463 10471 10483 10490 10499 10513 10525 10534 10543 10547 10552 10562 10568 10577 10580 10588 10598
10435 10422 10408 10392 10377 10367 10363 10353 10353 10351 10346 10329 10333 10339 10343 10344 10354 10355 10356 10369 10376 10381 10389 10408 10416 10409 10424 10433 10439 10444 10460 10466 10474 10496 10508 10517 10521 10522 10534 10541 10546 10552 10559 10568 10576
10413 10401 10387 10373 10354 10345 10340 10332 10328 10328 10325 10299 10318 10317 10314 10326 10329 10332 10339 10344 10354 10362 10370 10384 10385 10398 10404 10412 10419 10423 10436 10443 10453 10472 10482 10492 10500 10503 10507 10520 10525 10531 10535 10544 10553
10392 10380 10365 10356 10335 10324 10314 10313 10308 10309 10303 10297 10293 10297 10296 10304 10314 10311 10316 10324 10336 10340 10348 10365 10369 10379 10385 10391 10400 10408 10415 10419 10432 10447 10465 10472 10484 10480 10483 10497 10505 10510 10515 10520 10527
10373 10360 10345 10331 10325 10311 10300 10290 10290 10290 10288 10284 10279 10275 10280 10285 10293 10298 10301 10309 10315 10321 10332 10344 10351 10359 10364 10374 10382 10387 10394 10399 10413 10429 10444 10448 10460 10459 10463 10474 10480 10485 10493 10500 10507
10354 10342 10330 10313 10297 10293 10284 10276 10272 10272 10271 10267 10263 10260 10259 10268 10277 10276 10288 10292 10296 10306 10317 10327 10332 10340 10346 10354 10362 10371 10376 10384 10395 10408 10422 10422 10439 10449 10442 10451 10456 10463 10471 10480 10485
10335 10323 10312 10298 10286 10278 10268 10261 10258 10253 10253 10250 10248 10244 10244 10251 10257 10262 10272 10276 10281 10290 10300 10308 10315 10324 10331 10338 10347 10352 10359 10368 10378 10388 10402 10404 10416 10428 10426 10429 10434 10441 10448 10455 10464
10317 10307 10294 10283 10270 10264 10257 10247 10241 10239 10237 10236 10236 10234 10231 10235 10242 10247 10256 10262 10267 10275 10284 10293 10303 10307 10316 10323 10332 10338 10347 10355 10363 10371 10383 10388 10394 10402 10412 10415 10414 10420 10427 10435 10442
10303 10290 10276 10267 10257 10249 10242 10235 10229 10225 10224 10225 10225 10223 10223 10222 10230 10235 10240 10247 10255 10265 10273 10279 10287 10292 10303 10310 10320 10326 10332 10342 10349 10357 10364 10370 10377 10386 10391 10398 10400 10404 10408 10413 10421
10295 10280 10264 10251 10245 10236 10229 10223 10218 10214 10214 10214 10214 10213 10212 10214 10220 10224 10225 10234 10243 10252 10259 10268 10275 10281 10291 10301 10308 10314 10321 10329 10336 10343 10350 10357 10366 10369 10370 10378 10386 10390 10393 10397 10403
10278 10268 10251 10241 10231 10224 10217 10213 10209 10206 10203 10205 10204 10204 10203 10207 10211 10216 10218 10227 10232 10239 10247 10254 10263 10271 10281 10289 10295 10303 10311 10317 10323 10330 10337 10344 10351 10351 10356 10361 10369 10373 10379 10383 10388
10265 10253 10244 10229 10222 10213 10207 10203 10201 10198 10194 10195 10196 10195 10196 10201 10206 10211 10210 10217 10221 10227 10235 10242 10251 10260 10269 10279 10287 10293 10299 10305 10312 10319 10326 10330 10331 10338 10342 10348 10353 10358 10363 10371 10377
10256 10235 10232 10221 10211 10204 10198 10195 10192 10189 10187 10187 10188 10187 10191 10195 10197 10201 10206 10208 10213 10218 10225 10233 10241 10250 10260 10270 10276 10283 10290 10297 10304 10309 10313 10316 10317 10326 10330 10335 10343 10349 10357 10362 10367
10247 10230 10217 10211 10203 10194 10191 10186 10184 10183 10180 10181 10182 10182 10186 10189 10190 10192 10197 10200 10204 10210 10217 10225 10232 10240 10252 10260 10268 10275 10283 10290 10295 10297 10301 10302 10311 10318 10324 10330 10336 10343 10349 10353 10357
10235 10220 10210 10200 10194 10187 10182 10179 10177 10176 10175 10175 10175 10176 10178 10183 10185 10188 10189 10194 10199 10204 10210 10217 10224 10233 10242 10252 10260 10268 10275 10281 10284 10289 10292 10303 10307 10312 10319 10325 10331 10336 10341 10345 10349
10223 10209 10197 10192 10184 10179 10175 10172 10170 10170 10169 10169 10170 10170 10173 10177 10180 10183 10186 10188 10193 10198 10204 10212 10219 10227 10236 10245 10253 10260 10268 10273 10278 10284 10292 10296 10302 10307 10314 10319 10325 10331 10336 10340 10345
10210 10199 10188 10183 10174 10171 10168 10166 10164 10163 10164 10163 10164 10166 10168 10171 10173 10176 10179 10182 10187 10194 10199 10206 10212 10221 10231 10238 10246 10256 10263 10268 10274 10280 10285 10291 10297 10304 10310 10315 10321 10327 10332 10338 10342